Time,TemperatureF,DewpointF,PressureIn,WindDirection,WindDirectionDegrees,WindSpeedMPH,WindSpeedGustMPH,Humidity,HourlyPrecipIn,Conditions,Clouds,dailyrainin,SolarRadiationWatts/m^2,SoftwareType,DateUTC
2013-09-01 00:01:00,67.2,44.0,30.14,NE,38,10.0,14.0,43,0.00,,,0.00,0,weatherlink.com 1.10,2013-09-01 06:01:00,
2013-09-01 00:16:00,66.3,44.0,30.14,North,355,9.0,12.0,45,0.00,,,0.00,0,weatherlink.com 1.10,2013-09-01 06:16:00,
2013-09-01 00:31:00,65.6,44.0,30.15,NNE,28,7.0,9.0,46,0.00,,,0.00,0,weatherlink.com 1.10,2013-09-01 06:31:00,
2013-09-01 00:46:00,65.9,44.0,30.16,NE,34,7.0,10.0,45,0.00,,,0.00,0,weatherlink.com 1.10,2013-09-01 06:46:00,
2013-09-01 01:01:00,66.0,44.0,30.16,NE,34,8.0,11.0,45,0.00,,,0.00,0,weatherlink.com 1.10,2013-09-01 07:01:00,
2013-09-01 01:16:00,65.2,44.0,30.16,NE,42,9.0,11.0,46,0.00,,,0.00,0,weatherlink.com 1.10,2013-09-01 07:16:00,
2013-09-01 01:31:00,65.0,44.0,30.16,NE,49,7.0,9.0,47,0.00,,,0.00,0,weatherlink.com 1.10,2013-09-01 07:31:00,
2013-09-01 01:46:00,64.3,44.0,30.17,NE,38,4.0,7.0,48,0.00,,,0.00,0,weatherlink.com 1.10,2013-09-01 07:46:00,
2013-09-01 02:01:00,63.2,44.0,30.16,NE,38,6.0,7.0,49,0.00,,,0.00,0,weatherlink.com 1.10,2013-09-01 08:01:00,
2013-09-01 02:16:00,63.1,43.0,30.16,NE,38,3.0,6.0,49,0.00,,,0.00,0,weatherlink.com 1.10,2013-09-01 08:16:00,
2013-09-01 02:31:00,62.0,44.0,30.17,NE,38,2.0,4.0,52,0.00,,,0.00,0,weatherlink.com 1.10,2013-09-01 08:31:00,
2013-09-01 02:46:00,61.8,44.0,30.17,NNE,25,3.0,4.0,52,0.00,,,0.00,0,weatherlink.com 1.10,2013-09-01 08:46:00,
2013-09-01 03:01:00,60.7,44.0,30.17,NNE,24,0.0,4.0,54,0.00,,,0.00,0,weatherlink.com 1.10,2013-09-01 09:01:00,
2013-09-01 03:16:00,60.3,44.0,30.17,NNE,24,0.0,0.0,56,0.00,,,0.00,0,weatherlink.com 1.10,2013-09-01 09:16:00,
2013-09-01 03:31:00,59.9,43.0,30.17,NNE,24,0.0,0.0,55,0.00,,,0.00,0,weatherlink.com 1.10,2013-09-01 09:31:00,
2013-09-01 03:46:00,60.1,44.0,30.17,NNE,24,0.0,0.0,55,0.00,,,0.00,0,weatherlink.com 1.10,2013-09-01 09:46:00,
2013-09-01 04:01:00,59.7,43.0,30.16,NE,36,2.0,3.0,55,0.00,,,0.00,0,weatherlink.com 1.10,2013-09-01 10:01:00,
2013-09-01 04:16:00,60.4,43.0,30.17,NE,40,0.0,0.0,54,0.00,,,0.00,0,weatherlink.com 1.10,2013-09-01 10:16:00,
2013-09-01 04:31:00,58.6,44.0,30.17,NE,40,0.0,0.0,59,0.00,,,0.00,0,weatherlink.com 1.10,2013-09-01 10:31:00,
2013-09-01 04:46:00,57.3,44.0,30.17,NE,40,0.0,0.0,62,0.00,,,0.00,0,weatherlink.com 1.10,2013-09-01 10:46:00,
2013-09-01 05:01:00,56.8,45.0,30.17,NE,40,0.0,0.0,64,0.00,,,0.00,0,weatherlink.com 1.10,2013-09-01 11:01:00,
2013-09-01 05:16:00,56.6,45.0,30.17,NE,40,0.0,0.0,65,0.00,,,0.00,0,weatherlink.com 1.10,2013-09-01 11:16:00,
2013-09-01 05:31:00,56.4,45.0,30.17,NE,40,0.0,0.0,66,0.00,,,0.00,0,weatherlink.com 1.10,2013-09-01 11:31:00,
2013-09-01 05:46:00,56.4,45.0,30.18,NE,40,0.0,0.0,66,0.00,,,0.00,0,weatherlink.com 1.10,2013-09-01 11:46:00,
2013-09-01 06:01:00,55.8,46.0,30.18,NE,40,0.0,0.0,69,0.00,,,0.00,0,weatherlink.com 1.10,2013-09-01 12:01:00,
2013-09-01 06:17:00,55.2,46.0,30.18,NE,40,0.0,0.0,70,0.00,,,0.00,0,weatherlink.com 1.10,2013-09-01 12:17:00,
2013-09-01 06:32:00,54.1,45.0,30.18,NE,40,0.0,0.0,72,0.00,,,0.00,0,weatherlink.com 1.10,2013-09-01 12:32:00,
2013-09-01 06:47:00,52.9,45.0,30.19,SSE,167,0.0,3.0,75,0.00,,,0.00,0,weatherlink.com 1.10,2013-09-01 12:47:00,
2013-09-01 07:02:00,53.7,44.0,30.20,South,182,0.0,4.0,69,0.00,,,0.00,7,weatherlink.com 1.10,2013-09-01 13:02:00,
2013-09-01 07:17:00,54.0,44.0,30.20,ENE,64,2.0,3.0,69,0.00,,,0.00,14,weatherlink.com 1.10,2013-09-01 13:17:00,
2013-09-01 07:32:00,53.3,44.0,30.21,ENE,63,2.0,2.0,70,0.00,,,0.00,18,weatherlink.com 1.10,2013-09-01 13:32:00,
2013-09-01 07:47:00,53.8,44.0,30.21,ENE,64,0.0,3.0,70,0.00,,,0.00,63,weatherlink.com 1.10,2013-09-01 13:47:00,
2013-09-01 08:02:00,54.2,44.0,30.21,ENE,64,3.0,3.0,69,0.00,,,0.00,121,weatherlink.com 1.10,2013-09-01 14:02:00,
2013-09-01 08:17:00,56.1,44.0,30.21,ENE,64,0.0,0.0,65,0.00,,,0.00,171,weatherlink.com 1.10,2013-09-01 14:17:00,
2013-09-01 08:32:00,56.1,44.0,30.21,ENE,64,0.0,0.0,65,0.00,,,0.00,225,weatherlink.com 1.10,2013-09-01 14:32:00,
2013-09-01 08:47:00,57.0,45.0,30.21,ENE,64,0.0,0.0,64,0.00,,,0.00,258,weatherlink.com 1.10,2013-09-01 14:47:00,
2013-09-01 09:02:00,58.2,45.0,30.20,NE,46,0.0,2.0,62,0.00,,,0.00,272,weatherlink.com 1.10,2013-09-01 15:02:00,
2013-09-01 09:17:00,58.7,45.0,30.20,NE,46,0.0,0.0,60,0.00,,,0.00,322,weatherlink.com 1.10,2013-09-01 15:17:00,
2013-09-01 09:32:00,59.5,44.0,30.20,NE,46,0.0,1.0,57,0.00,,,0.00,371,weatherlink.com 1.10,2013-09-01 15:32:00,
2013-09-01 09:47:00,61.8,47.0,30.20,NE,50,0.0,1.0,58,0.00,,,0.00,413,weatherlink.com 1.10,2013-09-01 15:47:00,
2013-09-01 10:02:00,62.1,43.0,30.20,South,189,4.0,6.0,50,0.00,,,0.00,454,weatherlink.com 1.10,2013-09-01 16:02:00,
2013-09-01 10:17:00,62.5,44.0,30.19,SSW,210,5.0,9.0,52,0.00,,,0.00,494,weatherlink.com 1.10,2013-09-01 16:17:00,
2013-09-01 10:32:00,63.0,44.0,30.18,SSW,202,7.0,10.0,50,0.00,,,0.00,534,weatherlink.com 1.10,2013-09-01 16:32:00,
2013-09-01 10:47:00,62.8,45.0,30.18,SW,215,4.0,9.0,52,0.00,,,0.00,571,weatherlink.com 1.10,2013-09-01 16:47:00,
2013-09-01 11:03:00,64.2,44.0,30.17,SW,223,0.0,5.0,48,0.00,,,0.00,589,weatherlink.com 1.10,2013-09-01 17:03:00,
2013-09-01 11:18:00,65.8,44.0,30.17,SW,216,0.0,4.0,46,0.00,,,0.00,617,weatherlink.com 1.10,2013-09-01 17:18:00,
2013-09-01 11:33:00,68.2,44.0,30.16,SSE,155,0.0,3.0,42,0.00,,,0.00,643,weatherlink.com 1.10,2013-09-01 17:33:00,
2013-09-01 11:48:00,70.3,45.0,30.15,SSW,200,4.0,6.0,40,0.00,,,0.00,673,weatherlink.com 1.10,2013-09-01 17:48:00,
2013-09-01 12:03:00,70.5,45.0,30.15,SSW,211,2.0,6.0,40,0.00,,,0.00,693,weatherlink.com 1.10,2013-09-01 18:03:00,
2013-09-01 12:18:00,71.6,44.0,30.15,SW,225,8.0,11.0,37,0.00,,,0.00,707,weatherlink.com 1.10,2013-09-01 18:18:00,
2013-09-01 12:33:00,73.5,46.0,30.13,SW,217,8.0,10.0,37,0.00,,,0.00,729,weatherlink.com 1.10,2013-09-01 18:33:00,
2013-09-01 12:48:00,75.5,44.0,30.12,SSW,197,5.0,11.0,33,0.00,,,0.00,731,weatherlink.com 1.10,2013-09-01 18:48:00,
2013-09-01 13:03:00,76.6,45.0,30.11,SW,219,10.0,12.0,32,0.00,,,0.00,738,weatherlink.com 1.10,2013-09-01 19:03:00,
2013-09-01 13:18:00,77.6,45.0,30.09,SW,218,6.0,12.0,31,0.00,,,0.00,747,weatherlink.com 1.10,2013-09-01 19:18:00,
2013-09-01 13:33:00,78.8,45.0,30.09,SW,223,3.0,9.0,30,0.00,,,0.00,744,weatherlink.com 1.10,2013-09-01 19:33:00,
2013-09-01 13:48:00,80.6,44.0,30.08,SSW,200,3.0,9.0,27,0.00,,,0.00,761,weatherlink.com 1.10,2013-09-01 19:48:00,
2013-09-01 14:03:00,82.3,43.0,30.07,WSW,244,2.0,7.0,25,0.00,,,0.00,738,weatherlink.com 1.10,2013-09-01 20:03:00,
2013-09-01 14:18:00,83.7,43.0,30.06,SW,232,0.0,7.0,24,0.00,,,0.00,738,weatherlink.com 1.10,2013-09-01 20:18:00,
2013-09-01 14:33:00,85.0,43.0,30.05,West,260,0.0,4.0,23,0.00,,,0.00,729,weatherlink.com 1.10,2013-09-01 20:33:00,
2013-09-01 14:48:00,86.1,41.0,30.05,NW,314,0.0,7.0,20,0.00,,,0.00,726,weatherlink.com 1.10,2013-09-01 20:48:00,
2013-09-01 15:04:00,-999.0,-99.9,30.03,North,-999,-999.0,-999.0,-999,0.00,,,0.00,,weatherlink.com 1.10,2013-09-01 21:04:00,
2013-09-01 15:19:00,-999.0,-99.9,30.02,North,-999,-999.0,-999.0,-999,0.00,,,0.00,,weatherlink.com 1.10,2013-09-01 21:19:00,
2013-09-01 15:34:00,-999.0,-99.9,30.02,North,-999,-999.0,-999.0,-999,0.00,,,0.00,,weatherlink.com 1.10,2013-09-01 21:34:00,
2013-09-01 15:49:00,-999.0,-99.9,30.01,North,-999,-999.0,-999.0,-999,0.00,,,0.00,,weatherlink.com 1.10,2013-09-01 21:49:00,
2013-09-01 16:04:00,-999.0,-99.9,30.00,North,-999,-999.0,-999.0,-999,0.00,,,0.00,,weatherlink.com 1.10,2013-09-01 22:04:00,
2013-09-01 16:19:00,-999.0,-99.9,30.00,North,-999,-999.0,-999.0,-999,0.00,,,0.00,,weatherlink.com 1.10,2013-09-01 22:19:00,
2013-09-01 16:34:00,-999.0,-99.9,29.99,North,-999,-999.0,-999.0,-999,0.00,,,0.00,,weatherlink.com 1.10,2013-09-01 22:34:00,
2013-09-01 16:49:00,-999.0,-99.9,30.00,North,-999,-999.0,-999.0,-999,0.00,,,0.00,,weatherlink.com 1.10,2013-09-01 22:49:00,
2013-09-01 17:04:00,-999.0,-99.9,29.99,North,-999,-999.0,-999.0,-999,0.00,,,0.00,,weatherlink.com 1.10,2013-09-01 23:04:00,
2013-09-01 17:19:00,-999.0,-99.9,29.99,North,-999,-999.0,-999.0,-999,0.00,,,0.00,,weatherlink.com 1.10,2013-09-01 23:19:00,
2013-09-01 17:34:00,-999.0,-99.9,29.99,North,-999,-999.0,-999.0,-999,0.00,,,0.00,,weatherlink.com 1.10,2013-09-01 23:34:00,
2013-09-01 17:49:00,-999.0,-99.9,29.98,North,-999,-999.0,-999.0,-999,0.00,,,0.00,,weatherlink.com 1.10,2013-09-01 23:49:00,
2013-09-01 18:04:00,-999.0,-99.9,29.98,North,-999,-999.0,-999.0,-999,0.00,,,0.00,,weatherlink.com 1.10,2013-09-02 00:04:00,
2013-09-01 18:19:00,-999.0,-99.9,29.98,North,-999,-999.0,-999.0,-999,0.00,,,0.00,,weatherlink.com 1.10,2013-09-02 00:19:00,
2013-09-01 18:35:00,-999.0,-99.9,29.98,North,-999,-999.0,-999.0,-999,0.00,,,0.00,,weatherlink.com 1.10,2013-09-02 00:35:00,
2013-09-01 18:50:00,-999.0,-99.9,29.98,North,-999,-999.0,-999.0,-999,0.00,,,0.00,,weatherlink.com 1.10,2013-09-02 00:50:00,
2013-09-01 19:05:00,-999.0,-99.9,29.98,North,-999,-999.0,-999.0,-999,0.00,,,0.00,,weatherlink.com 1.10,2013-09-02 01:05:00,
2013-09-01 19:20:00,-999.0,-99.9,29.98,North,-999,-999.0,-999.0,-999,0.00,,,0.00,,weatherlink.com 1.10,2013-09-02 01:20:00,
2013-09-01 19:35:00,-999.0,-99.9,29.98,North,-999,-999.0,-999.0,-999,0.00,,,0.00,,weatherlink.com 1.10,2013-09-02 01:35:00,
2013-09-01 19:50:00,-999.0,-99.9,29.98,North,-999,-999.0,-999.0,-999,0.00,,,0.00,,weatherlink.com 1.10,2013-09-02 01:50:00,
2013-09-01 20:05:00,-999.0,-99.9,29.98,North,-999,-999.0,-999.0,-999,0.00,,,0.00,,weatherlink.com 1.10,2013-09-02 02:05:00,
2013-09-01 20:20:00,-999.0,-99.9,29.98,North,-999,-999.0,-999.0,-999,0.00,,,0.00,,weatherlink.com 1.10,2013-09-02 02:20:00,
2013-09-01 20:35:00,-999.0,-99.9,29.99,North,-999,-999.0,-999.0,-999,0.00,,,0.00,,weatherlink.com 1.10,2013-09-02 02:35:00,
2013-09-01 20:50:00,-999.0,-99.9,30.00,North,-999,-999.0,-999.0,-999,0.00,,,0.00,,weatherlink.com 1.10,2013-09-02 02:50:00,
2013-09-01 21:05:00,-999.0,-99.9,30.01,North,-999,-999.0,-999.0,-999,0.00,,,0.00,,weatherlink.com 1.10,2013-09-02 03:05:00,
2013-09-01 21:20:00,-999.0,-99.9,30.01,North,-999,-999.0,-999.0,-999,0.00,,,0.00,,weatherlink.com 1.10,2013-09-02 03:20:00,
2013-09-01 21:35:00,-999.0,-99.9,30.02,North,-999,-999.0,-999.0,-999,0.00,,,0.00,,weatherlink.com 1.10,2013-09-02 03:35:00,
2013-09-01 21:51:00,-999.0,-99.9,30.02,North,-999,-999.0,-999.0,-999,0.00,,,0.00,,weatherlink.com 1.10,2013-09-02 03:51:00,
2013-09-01 22:06:00,-999.0,-99.9,30.03,North,-999,-999.0,-999.0,-999,0.00,,,0.00,,weatherlink.com 1.10,2013-09-02 04:06:00,
2013-09-01 22:21:00,-999.0,-99.9,30.03,North,-999,-999.0,-999.0,-999,0.00,,,0.00,,weatherlink.com 1.10,2013-09-02 04:21:00,
2013-09-01 22:36:00,-999.0,-99.9,30.03,North,-999,-999.0,-999.0,-999,0.00,,,0.00,,weatherlink.com 1.10,2013-09-02 04:36:00,
2013-09-01 22:51:00,-999.0,-99.9,30.04,North,-999,-999.0,-999.0,-999,0.00,,,0.00,,weatherlink.com 1.10,2013-09-02 04:51:00,
2013-09-01 23:06:00,-999.0,-99.9,30.03,North,-999,-999.0,-999.0,-999,0.00,,,0.00,,weatherlink.com 1.10,2013-09-02 05:06:00,
2013-09-01 23:21:00,-999.0,-99.9,30.03,North,-999,-999.0,-999.0,-999,0.00,,,0.00,,weatherlink.com 1.10,2013-09-02 05:21:00,
2013-09-01 23:36:00,-999.0,-99.9,30.03,North,-999,-999.0,-999.0,-999,0.00,,,0.00,,weatherlink.com 1.10,2013-09-02 05:36:00,
2013-09-01 23:51:00,-999.0,-99.9,30.03,North,-999,-999.0,-999.0,-999,0.00,,,0.00,,weatherlink.com 1.10,2013-09-02 05:51:00,